This is the latest recevied weather packets stored in our database for station/object SP4MAZ-13. If no packets are shown the sender has not sent any weather packets the latest 10 day(s).
| Time | Temp. | Humidity | Pressure | Rain* | Wind** | Luminosity | Snow |
|---|---|---|---|---|---|---|---|
| 1777448358 | 5.56° C | 59% | 2147.4 hPa | - | - | - | - |
| 1777448054 | 4.44° C | 61% | 2147.4 hPa | - | - | - | - |
| 1777447751 | 5° C | 62% | 2147.4 hPa | - | - | - | - |
| 1777447448 | 5.56° C | 59% | 2147.4 hPa | - | - | - | - |
| 1777447144 | 5° C | 63% | 2147.4 hPa | - | - | - | - |
| 1777446841 | 5° C | 59% | 2147.4 hPa | - | - | - | - |
| 1777446539 | 5° C | 63% | 2147.4 hPa | - | - | - | - |
| 1777446234 | 4.44° C | 61% | 2147.4 hPa | - | - | - | - |
| 1777445932 | 3.89° C | 63% | 2147.4 hPa | - | - | - | - |
| 1777445631 | 4.44° C | 66% | 2147.4 hPa | - | - | - | - |
| 1777445325 | 3.89° C | 71% | 2147.4 hPa | - | - | - | - |
| 1777445024 | 3.89° C | 65% | 2147.4 hPa | - | - | - | - |
| 1777444721 | 3.89° C | 69% | 2147.4 hPa | - | - | - | - |
| 1777444418 | 3.89° C | 71% | 2147.4 hPa | - | - | - | - |
| 1777444114 | 3.89° C | 71% | 2147.4 hPa | - | - | - | - |
| 1777443810 | 3.89° C | 72% | 2147.4 hPa | - | - | - | - |
| 1777443507 | 2.78° C | 72% | 2147.4 hPa | - | - | - | - |
| 1777443203 | 3.33° C | 76% | 2147.4 hPa | - | - | - | - |
| 1777442900 | 3.33° C | 72% | 2147.4 hPa | - | - | - | - |
| 1777442597 | 3.33° C | 73% | 2147.4 hPa | - | - | - | - |
| 1777442293 | 2.78° C | 78% | 2147.4 hPa | - | - | - | - |
| 1777441990 | 3.33° C | 78% | 2147.4 hPa | - | - | - | - |
| 1777441687 | 3.33° C | 76% | 2147.4 hPa | - | - | - | - |
| 1777441384 | 3.33° C | 71% | 2147.4 hPa | - | - | - | - |
| 1777441080 | 3.33° C | 69% | 2147.4 hPa | - | - | - | - |
* Rain since midnight (hover to see other rain measurements)
** Current wind speed in m/s (hover to see current wind gust speed)